Location: Unspecified
(0.0000°N, 0.0000°E)
Time: 21:14:19
(UTC+00:00)

Vanguard 1 Rocket - Pass Details

Date: 24 January 2020
Orbit: 650 x 4226 km, 34.3° (Epoch: 23 February)

Event Time Altitude Azimuth Distance (km) Brightness Sun altitude
Rises 21:05:23 0° 274° (W) 8,453 13.0 -40.4°
Reaches altitude 10° 21:13:35 10° 263° (W) 7,220 12.5 -42.2°
Maximum altitude 21:30:46 25° 215° (SW) 4,946 11.4 -46.1°
Drops below altitude 10° 21:42:35 10° 164° (SSE) 4,872 11.2 -48.6°
Sets 21:46:45 0° 150° (SSE) 5,356 11.3 -49.5°
